Sable Island, Nova Scotia

9:09 AM ADT on September 26, 2017 (GMT -0300)
Sable Island

Weather History for CWSA - November, 2012

Change the Weather History Date:

Tuesday, November 6, 2012

  Actual Average Record
Temperature  
Mean Temperature 48 °F -  
Max Temperature 55 °F 47 °F 62 °F (2010)
Min Temperature 40 °F 38 °F 26 °F (2006)
Degree Days  
Heating Degree Days 18    
Moisture  
Dew Point 42 °F    
Average Humidity 79    
Maximum Humidity 100    
Minimum Humidity 45    
Precipitation  
Precipitation 0.28 in 0.19 in - ()
Sea Level Pressure  
Sea Level Pressure 29.85 in    
Wind  
Wind Speed 15 mph ()    
Max Wind Speed 38 mph    
Max Gust Speed 45 mph    
Visibility 6.6 miles    
Events Rain    
Averages and records for this station are not official NWS values.
T = Trace of Precipitation, MM = Missing Value Source: Averaged Metar Reports

Daily Weather History Graph

Daily Weather History Graph

Search for Another Location

Airport or City:

Trip Planner

Search our weather history database for the weather conditions in past years. The results will help you decide how hot, cold, wet, or windy it might be!

Date:

Astronomy

Nov. 06, 2012 Rise Set
Actual Time 6:43 AM AST 4:43 PM AST
Civil Twilight 6:13 AM AST 5:13 PM AST
Nautical Twilight 5:38 AM AST 5:48 PM AST
Astronomical Twilight 5:05 AM AST 6:21 PM AST
Moon 11:19 PM AST (11/6) 12:31 PM AST (11/6)
Length of Visible Light 11h 00m
Length of Day
9h 59m
Waning Gibbous, 54% of the Moon is Illuminated
Nov 6
Waning Gibbous
Nov 6
Last Quarter
Nov 13
New
Nov 20
First Quarter
Nov 28
Full

Hourly Weather History & Observations

Time (AST) Temp. Windchill Dew Point Humidity Pressure Visibility Wind Dir Wind Speed Gust Speed Precip Events Conditions
12:00 AM 53.6 °F - 53.6 °F 100% 29.68 in 2.1 mi East 12.7 mph 19.6 mph N/A Rain Rain
12:11 AM 55.4 °F - 53.6 °F 94% 29.66 in 2.5 mi East 12.7 mph - N/A Rain Rain
12:20 AM 55.4 °F - 53.6 °F 94% 29.65 in 4.0 mi ENE 12.7 mph - N/A Rain Light Rain
12:35 AM 55.4 °F - 53.6 °F 94% 29.64 in 7.0 mi East 15.0 mph - N/A   Overcast
12:40 AM 55.4 °F - 53.6 °F 94% 29.64 in 7.0 mi East 12.7 mph - N/A Rain Light Rain
12:57 AM 55.4 °F - 53.6 °F 94% 29.63 in 7.0 mi East 13.8 mph - N/A Rain Light Rain
1:00 AM 55.4 °F - 53.6 °F 94% 29.63 in 6.0 mi East 11.5 mph 17.3 mph N/A Rain Light Rain
1:11 AM 55.4 °F - 53.6 °F 94% 29.61 in 4.0 mi East 13.8 mph - N/A   Overcast
2:00 AM 55 °F - 54 °F 94% 29.60 in 6 mi ENE 8.1 mph - -   Overcast
2:00 AM 55.4 °F - 53.6 °F 94% 29.60 in 6.0 mi ENE 6.9 mph - N/A   Overcast
2:27 AM 55.4 °F - 53.6 °F 94% 29.60 in 7.0 mi East 4.6 mph - N/A   Overcast
2:38 AM 53.6 °F - 53.6 °F 100% 29.60 in 6.0 mi East 4.6 mph - N/A   Overcast
2:47 AM 53.6 °F - 53.6 °F 100% 29.60 in 6.0 mi East 2.3 mph - N/A   Overcast
2:58 AM 53.6 °F - 53.6 °F 100% 29.60 in 6.0 mi Calm Calm - N/A   Overcast
3:00 AM 53.6 °F - 53.6 °F 100% 29.61 in 6.0 mi Calm Calm - N/A   Overcast
3:09 AM 53.6 °F - 53.6 °F 100% 29.61 in 3.5 mi SW 4.6 mph - N/A   Overcast
3:11 AM 55.4 °F - 53.6 °F 94% 29.61 in 2.5 mi SW 3.5 mph - N/A   Overcast
3:17 AM 55.4 °F - 53.6 °F 94% 29.62 in 1.1 mi West 11.5 mph 17.3 mph N/A   Overcast
3:18 AM 53.6 °F - 53.6 °F 100% 29.62 in 1.0 mi NW 18.4 mph 40.3 mph N/A Rain Rain
3:19 AM 51.8 °F - 51.8 °F 100% 29.62 in 1.0 mi NW 31.1 mph 40.3 mph N/A Rain Rain
3:20 AM 51.8 °F - 50.0 °F 94% 29.63 in 1.0 mi NNW 31.1 mph 40.3 mph N/A Rain Rain
3:27 AM 51.8 °F - 50.0 °F 94% 29.63 in 1.0 mi NNW 33.4 mph 41.4 mph N/A Rain Light Rain
3:29 AM 51.8 °F - 50.0 °F 94% 29.64 in 1.8 mi NNW 33.4 mph 41.4 mph N/A Rain Light Rain
3:42 AM 50.0 °F - 48.2 °F 94% 29.65 in 6.0 mi NNW 38.0 mph 44.9 mph N/A Rain Light Rain
4:00 AM 48.2 °F - 46.4 °F 93% 29.66 in 3.5 mi NNW 36.8 mph 43.7 mph N/A Rain Light Rain
4:06 AM 48.2 °F - 46.4 °F 93% 29.67 in 2.5 mi NNW 36.8 mph 43.7 mph N/A Rain Light Rain
4:20 AM 48.2 °F - 46.4 °F 93% 29.69 in 2.5 mi NW 35.7 mph 44.9 mph N/A   Unknown
4:23 AM 48.2 °F - 44.6 °F 87% 29.70 in 8.0 mi NW 36.8 mph 44.9 mph N/A   Unknown
4:39 AM 48.2 °F - 44.6 °F 87% 29.72 in 8.0 mi NNW 35.7 mph 42.6 mph N/A   Overcast
5:00 AM 48 °F - 44 °F 81% 29.75 in 7 mi NW 34.5 mph - -   Overcast
5:00 AM 48.2 °F - 44.6 °F 87% 29.75 in 7.0 mi NW 36.8 mph - N/A   Overcast
6:00 AM 48.2 °F - 42.8 °F 82% 29.82 in 9.0 mi NW 27.6 mph 34.5 mph N/A   Overcast
7:00 AM 48.2 °F - 41.0 °F 76% 29.87 in 9.0 mi NW 25.3 mph 32.2 mph N/A   Overcast
7:06 AM 48.2 °F - 41.0 °F 76% 29.87 in 9.0 mi NW 24.2 mph 32.2 mph N/A   Overcast
8:00 AM 46 °F - 40 °F 72% 29.94 in 9 mi WNW 23.0 mph - -   Overcast
8:00 AM 46.4 °F 38.7 °F 39.2 °F 76% 29.94 in 9.0 mi NW 20.7 mph 29.9 mph N/A   Overcast
9:00 AM 48.2 °F - 37.4 °F 66% 29.97 in 9.0 mi WNW 18.4 mph - N/A   Overcast
9:19 AM 46.4 °F 39.0 °F 37.4 °F 71% 29.98 in 9.0 mi WNW 19.6 mph 28.8 mph N/A   Overcast
10:00 AM 46.4 °F 38.7 °F 33.8 °F 62% 30.01 in 9.0 mi WNW 20.7 mph 27.6 mph N/A   Overcast
11:00 AM 44 °F - 32 °F 52% 30.05 in 9 mi West 19.6 mph - -   Overcast
11:00 AM 44.6 °F 36.6 °F 32.0 °F 61% 30.05 in 9.0 mi WNW 19.6 mph - N/A   Overcast
12:00 PM 44.6 °F 37.2 °F 30.2 °F 57% 30.06 in 9.0 mi West 17.3 mph 25.3 mph N/A   Mostly Cloudy
1:00 PM 42.8 °F 34.3 °F 28.4 °F 57% 30.08 in 9.0 mi WNW 19.6 mph 25.3 mph N/A   Partly Cloudy
2:00 PM 43 °F - 30 °F 48% 30.10 in 9 mi West 15.0 mph - -  
2:00 PM 42.8 °F 34.8 °F 30.2 °F 61% 30.10 in 9.0 mi West 17.3 mph - N/A   Mostly Cloudy
3:00 PM 42.8 °F 35.8 °F 30.2 °F 61% 30.14 in 9.0 mi WNW 13.8 mph - N/A   Overcast
4:00 PM 41.0 °F 34.3 °F 28.4 °F 61% 30.15 in 9.0 mi West 11.5 mph 17.3 mph N/A   Mostly Cloudy
5:00 PM 40 °F - 27 °F 49% 30.17 in 9 mi West 10.4 mph - -  
5:00 PM 41.0 °F 35.2 °F 26.6 °F 57% 30.17 in 9.0 mi West 9.2 mph - N/A   Mostly Cloudy
6:00 PM 41.0 °F 35.2 °F 28.4 °F 61% 30.20 in 9.0 mi West 9.2 mph - N/A   Scattered Clouds
7:00 PM 41.0 °F 35.8 °F 28.4 °F 61% 30.20 in 9.0 mi West 8.1 mph - N/A   Mostly Cloudy
8:00 PM 42 °F - 28 °F 46% 30.21 in 9 mi WNW 6.9 mph - -  
8:00 PM 41.0 °F 38.0 °F 28.4 °F 61% 30.21 in 9.0 mi WNW 4.6 mph - N/A   Mostly Cloudy
9:00 PM 42.8 °F 39.3 °F 28.4 °F 57% 30.23 in 9.0 mi WSW 5.8 mph - N/A   Overcast
10:00 PM 42.8 °F 38.0 °F 28.4 °F 57% 30.25 in 9.0 mi WNW 8.1 mph - N/A   Overcast
11:00 PM 43 °F - 29 °F 45% 30.24 in 9 mi West 5.8 mph - -   Overcast
11:00 PM 42.8 °F 40.1 °F 28.4 °F 57% 30.24 in 9.0 mi West 4.6 mph - N/A   Overcast